Content
SEND FEEDBACK

Daily
Averages
Monthly
Summary
United States of America

STATEN ISLAND, NEW YORK


Home > North America > United States > New York
Elevation: 46 meters     Latitude: 40 35N     Longitude: 074 09W

WEATHER
 
SELECT A DAY
Number of Records: 189,832;   Date Range: 1/1/95 - 9/3/14
 
SHARE

PRINT THIS DATA

[ ← Previous Day ]
WEATHER ALMANAC - 11 JANUARY, 2013
[ Next Day → ]
[ °F ]   °C
Weather ElementAverageHighLow
Temperature6.3 °C8 °C (4:08 pm)1.7 °C (2:51 am)
Dewpoint3.3 °C7.2 °C (6:51 pm)-4.4 °C (1:51 am)
Humidity82.4 %100 % (8:40 pm)59 % (1:51 am)
Barometer1025.4 hPa1033.2 hPa (1:51 am)1019 hPa (11:51 pm)
Wind Speed6.9 km/h13 km/h (1:51 am)
Weather ElementAverage
Visibility9.3 km
Wind DirectionENE (70 °)

Weather ElementTotal
Precipitation29.46 mm
Heating Degree Days13.5 (Base 18.3)
Averaged from 36 records on 11 January, 2013
WEATHER CONDITIONS BREAKOUT
WIND DIRECTION BREAKOUT
WEATHER BY HOUR - 11 JANUARY, 2013
[ °F ]   °C
Local TimeTemperatureDewpointHumidityBarometerVisibilityWind DirectionWind SpeedGust SpeedPrecipitationEventsConditions
1:51 AM2.8 °C-4.4 °C59 %1033.2 hPa16.1 kmNNE (20°)13 km/hMostly Cloudy
2:51 AM1.7 °C-4.4 °C64 %1033.2 hPa16.1 kmNNE (30°)9.3 km/hMostly Cloudy
3:51 AM2.2 °C-4.4 °C62 %1032.2 hPa16.1 kmNorth (10°)9.3 km/hMostly Cloudy
4:51 AM2.2 °C-4.4 °C62 %1031.5 hPa16.1 kmNorth (10°)11.1 km/hOvercast
5:51 AM2.8 °C-3.9 °C62 %1031.8 hPa16.1 kmCalmOvercast
6:51 AM3.3 °C-3.9 °C60 %1031.8 hPa16.1 kmCalmMostly Cloudy
7:51 AM3.9 °C-3.3 °C60 %1032.2 hPa16.1 kmCalmOvercast
8:51 AM5 °C-1.7 °C62 %1031.5 hPa16.1 kmEast (80°)9.3 km/hOvercast
9:51 AM5.6 °C-0.6 °C65 %1031.2 hPa16.1 kmEast (80°)9.3 km/hOvercast
10:51 AM6.1 °C0 °C65 %1029.8 hPa16.1 kmEast (80°)9.3 km/hOvercast
11:51 AM6.7 °C0.6 °C65 %1028.4 hPa16.1 kmEast (90°)9.3 km/hOvercast
12:51 PM7.2 °C2.2 °C71 %1027.4 hPa16.1 kmVariable7.4 km/h0 mmRainLight Rain
1:51 PM7.2 °C2.8 °C74 %1026.8 hPa16.1 kmEast (90°)9.3 km/h0 mmRainLight Rain
2:51 PM7.2 °C3.3 °C76 %1026.1 hPa16.1 kmEast (80°)9.3 km/h0 mmRainLight Rain
3:51 PM7.2 °C4.4 °C82 %1025.1 hPa16.1 kmESE (110°)7.4 km/h0 mmRainLight Rain
4:08 PM8 °C4 °C76 %1025.1 hPa16.1 kmEast (90°)7.4 km/h0 mmOvercast
4:51 PM7.8 °C5 °C83 %1024.4 hPa9.7 kmEast (90°)7.4 km/h0 mmRainLight Rain
5:23 PM8 °C6 °C87 %1023.7 hPa4.8 kmSE (130°)9.3 km/h0.25 mmRainLight Rain
5:49 PM8 °C7 °C93 %1023.4 hPa4.8 kmSSE (150°)5.6 km/h1.27 mmRainLight Rain
5:51 PM7.8 °C6.7 °C93 %1023.4 hPa4.8 kmSE (140°)5.6 km/h1.27 mmRainLight Rain
6:13 PM8 °C7 °C93 %1022.7 hPa4.8 kmSE (130°)9.3 km/h0.25 mmRainLight Rain
6:31 PM8 °C7 °C93 %1022 hPa4.8 kmESE (120°)9.3 km/h0.76 mmRainLight Rain
6:51 PM7.8 °C7.2 °C96 %1021.7 hPa4.8 kmSE (130°)5.6 km/h1.52 mmRainRain
7:13 PM8 °C7 °C93 %1022 hPa4.8 kmCalm1.52 mmRainRain
7:29 PM8 °C7 °C93 %1022.4 hPa4 kmCalm3.3 mmRainHeavy Rain
7:41 PM8 °C7 °C93 %1022.7 hPa4.8 kmCalm4.57 mmRainLight Rain
7:51 PM7.8 °C7.2 °C96 %1022.7 hPa4.8 kmCalm4.83 mmRainLight Rain
8:11 PM8 °C7 °C93 %1022.4 hPa4 kmCalm0.76 mmRainLight Rain
8:40 PM7 °C7 °C100 %1022 hPa1.6 kmENE (60°)9.3 km/h1.27 mmRainLight Rain
8:51 PM6.7 °C6.1 °C96 %1021.7 hPa1.6 kmNE (50°)11.1 km/h1.78 mmRainRain
9:51 PM6.1 °C6.1 °C100 %1020.7 hPa1.6 kmNNE (20°)9.3 km/h2.29 mmRainLight Rain
10:37 PM7 °C7 °C100 %1020.3 hPa1.6 kmNNW (340°)5.6 km/h1.02 mmRainLight Rain
10:51 PM6.7 °C6.7 °C100 %1020 hPa1.6 kmNorth (360°)5.6 km/h1.27 mmRainLight Rain
11:26 PM6 °C6 °C100 %1019.3 hPa3.2 kmNorth (10°)13 km/h0.51 mmRainLight Rain
11:28 PM6 °C6 °C100 %1019.6 hPa1.6 kmNorth (10°)13 km/h0.51 mmRainLight Rain
11:51 PM6.1 °C6.1 °C100 %1019 hPa1.6 kmNorth (10°)11.1 km/h0.51 mmRainLight Rain
Hourly data recorded from KEWR, located 0 kilometers away from Staten Island, New York







STORIES FROM OUR PARTNERS